[keps] orb12253.2l.amsat

Ray Hoad ray.hoad at mypbmail.com
Sun Sep 9 09:57:48 PDT 2012


SB KEPS @ AMSAT  $ORB12253.N
2Line Orbital Elements 12253.AMSAT

HR AMSAT ORBITAL ELEMENTS FOR AMATEUR SATELLITES IN NASA FORMAT
FROM WA5QGD FORT WORTH,TX September 9, 2012
Send SUBSCRIBE KEPS/UNSUBSCRIBE KEPS to majordomo at amsat.org only
BID: ORB12253.N

DECODE 2-LINE ELSETS WITH THE FOLLOWING KEY:
1 AAAAAU 00  0  0 BBBBB.BBBBBBBB  .CCCCCCCC  00000-0  00000-0 0  DDDZ
2 AAAAA EEE.EEEE FFF.FFFF GGGGGGG HHH.HHHH III.IIII JJ.JJJJJJJJKKKKKZ
KEY: A-CATALOGNUM B-EPOCHTIME C-DECAY D-ELSETNUM E-INCLINATION F-RAAN
G-ECCENTRICITY H-ARGPERIGEE I-MNANOM J-MNMOTION K-ORBITNUM Z-CHECKSUM

TO ALL RADIO AMATEURS BT

AO-07
1 07530U 74089B   12253.49976697 -.00000027  00000-0  10000-3 0  4767
2 07530 101.4092 247.4743 0011911 115.5685 244.6621 12.53591225730616
FO-29
1 24278U 96046B   12252.82272023  .00000004  00000-0  39758-4 0  9312
2 24278 098.5866 342.5459 0350670 172.6910 187.9536 13.52988430793265
SO-33
1 25509U 98061B   12252.13500487  .00000312  00000-0  47496-4 0 03179
2 25509 031.4330 224.2669 0352566 209.1884 148.8523 14.28810652724525
RS-22
1 27939U 03042A   12252.23959553  .00000793  00000-0  15928-3 0 07054
2 27939 097.8063 088.7802 0013762 007.3017 352.8362 14.64121277478031
VO-52
1 28650U 05017B   12252.24474517  .00002068  00000-0  25804-3 0 02025
2 28650 097.5913 279.1233 0027219 126.3739 234.0009 14.83157574397288
HO-68
1 36122U 09072B   12253.35557228 -.00000044  00000-0  00000 0 0  8124
2 36122 100.3522 310.9729 0007036 277.8169 082.2146 13.16297865131462
UO-11
1 14781U 84021B   12252.72432408  .00000818  00000-0  11354-3 0  9701
2 14781 097.9461 311.4787 0009953 118.4776 241.7435 14.80550327532292
AO-16
1 20439U 90005D   12252.86052254  .00000240  00000-0  10514-3 0 05532
2 20439 098.4357 193.9154 0010034 273.9931 086.0105 14.32081667181974
LO-19
1 20442U 90005G   12252.87086840  .00000304  00000-0  12844-3 0 04971
2 20442 098.4032 196.6421 0010966 262.9847 097.0082 14.32298653182166
AO-27
1 22825U 93061C   12252.89085796  .00000156  00000-0  77947-4 0  1927
2 22825 098.5798 194.4260 0009107 037.9191 322.2624 14.29483880988430
IO-26
1 22826U 93061D   12252.87566029  .00000211  00000-0  99234-4 0 09562
2 22826 098.5751 194.7604 0009710 031.3120 328.8636 14.29759649988563
GO-32
1 25397U 98043D   12251.92995817 -.00000029  00000-0  53488-5 0 08704
2 25397 098.3717 226.6048 0002232 052.6466 307.4920 14.23290402735792
NO-44
1 26931U 01043C   12252.07165463 -.00000057  00000-0  10066-4 0 01322
2 26931 067.0502 266.7167 0006753 252.8136 107.2239 14.29826018571093
SO-50
1 27607U 02058C   12251.89398949  .00001283  00000-0  21372-3 0 08594
2 27607 064.5575 043.2868 0077941 231.9194 127.4872 14.72495429522146
CO-55
1 27844U 03031E   12251.58344623  .00000268  00000-0  14366-3 0 04587
2 27844 098.7046 258.7716 0009818 351.6605 008.4416 14.21066613476593
CO-57
1 27848U 03031J   12252.02417530  .00000249  00000-0  13561-3 0 04090
2 27848 098.7131 258.5776 0009665 355.8515 004.2587 14.20813322476591
AO-51
1 28375U 04025K   12252.89225843  .00000103  00000-0  43431-4 0  3604
2 28375 098.1568 214.3173 0083525 146.7741 213.8789 14.40981424430820
CP3
1 31129U 07012N   12251.57363735  .00000635  00000-0  15390-3 0 02590
2 31129 097.8841 254.5141 0100035 226.5485 132.7345 14.53194506285949
CO-65
1 32785U 08021C   12253.17551712  .00001489  00000-0  18857-3 0  4100
2 32785 097.7896 312.2108 0015683 143.2077 217.0249 14.83170954236218
PRISM
1 33493U 09002B   12252.25827197  .00004483  00000-0  53980-3 0 00523
2 33493 098.1818 034.8742 0019207 030.9315 329.3025 14.84284027196074
SOHLA-1
1 33496U 09002E   12252.89615183  .00000737  00000-0  13108-3 0 08452
2 33496 098.1112 004.1118 0007183 127.5553 232.6299 14.70037539194546
SO-67
1 35870U 09049F   12253.48771727  .00006421  00000-0  26422-3 0  3100
2 35870 097.2255 286.2722 0001074 173.6001 321.8608 15.24466481165454
TISAT-1
1 36799U 10035E   12253.46266561  .00002992  00000-0  38135-3 0  3294
2 36799 098.0566 330.4021 0013451 258.7413 101.2286 14.82223737116970
STUDSAT
1 36801U 10035G   12252.91303087  .00008074  00000-0  95031-3 0 04939
2 36801 098.0651 330.9645 0011099 244.9111 115.0953 14.85050287116946
FO-69
1 37227U 0        12252.27038377  .00000943  00000-0  14080-3 0 02793
2 37227 071.9692 128.6131 0017021 170.9164 189.2291 14.77160508048360
FO-70
1 37380U 0        12252.28996895  .00000932  00000-0  14006-3 0 02833
2 37380 071.9733 129.2355 0017579 167.8935 192.2653 14.76911609048259
ALMASAT-1
1 38078U 12006B   12252.09177345  .00026509  00000-0  73419-3 0 05482
2 38078 069.4825 129.1306 0746431 144.9588 220.3015 14.11853200029243
XATCOBEO
1 38082U 12006F   12252.07965093  .00064262  00000-0  15497-2 0  5388
2 38082 069.4837 124.7607 0709198 142.6195 222.6420 14.22518401 29354
NOAA-10
1 16969U 86073A   12252.91687556  .00000124  00000-0  67849-4 0 00574
2 16969 098.5777 280.4613 0012272 354.1307 005.9735 14.27575216351814
NOAA-11
1 19531U 88089A   12252.86806269  .00000094  00000-0  71003-4 0 00493
2 19531 098.7295 336.2557 0011253 349.9125 010.1851 14.14979599236349
NOAA-12
1 21263U 91032A   12252.92455155 -.00000048  00000-0 -14217-5 0 05357
2 21263 098.7254 274.1840 0013408 321.6896 038.3331 14.25516047108485
MET-3/5
1 21655U 91056A   12252.78970527 -.00000317  00000-0 -85622-3 0 04991
2 21655 082.5523 093.1283 0014511 112.7728 247.4929 13.17044364012892
MET-2/21
1 22782U 93055A   12252.82055937 -.00000001  00000-0 -14354-4 0 05220
2 22782 082.5501 326.1593 0020912 278.9959 080.8828 13.83688808960738
OKEAN-4
1 23317U 94066A   12252.91854617  .00001197  00000-0  14051-3 0 00515
2 23317 082.5414 312.9215 0023287 076.3317 284.0489 14.83937341967228
NOAA-14
1 23455U 94089A   12252.90549961  .00000083  00000-0  67088-4 0 00157
2 23455 098.8240 335.3377 0010405 077.3904 282.8429 14.13869636912625
NOAA-15
1 25338U 98030A   12252.11555053  .00000277  00000-0  13701-3 0 03948
2 25338 098.6977 238.2751 0009830 224.2087 135.8307 14.25115759744666
RESURS
1 25394U 98043A   12252.92954130  .00000078  00000-0  51397-4 0  1796
2 25394 098.3280 236.7909 0002085 023.8482 336.2795 14.24295024736322
FENGYUN1
1 25730U 99025A   12252.89726020  .00001061  00000-0  62784-3 0  6904
2 25730 098.8498 210.4516 0019424 117.4974 242.8173 14.09737557686406
OKEAN-0
1 25860U 99039A   12252.94689974  .00000882  00000-0  14081-3 0 07385
2 25860 097.9460 213.9238 0001483 034.6010 325.5294 14.74292037706918
NOAA-16
1 26536U 00055A   12252.11201533  .00000344  00000-0  21014-3 0 08823
2 26536 099.0858 295.4854 0010233 206.3988 153.6696 14.12778020616747
NOAA-17
1 27453U 02032A   12252.18920900  .00000179  00000-0  94821-4 0 08285
2 27453 098.3314 275.0182 0010729 274.3074 085.6911 14.24478939530573
NOAA-18
1 28654U 05018A   12252.27510877  .00000154  00000-0  10983-3 0 03109
2 28654 099.0548 211.0920 0013532 283.7525 076.2147 14.11696133376281
NOAA-19
1 33591U 09005A   12252.30171983  .00000313  00000-0  19730-3 0 04994
2 33591 098.8683 191.0788 0014461 143.0753 217.1419 14.11383050184732
HUBBLE
1 20580U 90037B   12250.61945086  .00002970  00000-0  20448-3 0 00656
2 20580 028.4710 330.5555 0003584 202.3050 157.7335 15.02755706026992
ISS
1 25544U 98067A   12252.93488678  .00014780  00000-0  26097-3 0 02669
2 25544 051.6467 064.8635 0015615 050.3777 104.0148 15.50478392791032
CO-58
1 28895U 05043F   12252.17578731  .00000920  00000-0  19755-3 0 02719
2 28895 097.9023 114.7517 0016482 250.0885 109.8515 14.60734281365772
FALCON
1 30776U 07006E   12252.95071647  .00006667  00000-0  42513-3 0 04579
2 30776 035.4324 125.0030 0002218 354.1062 005.9629 15.08142591302902
MAST
1 31126U 07012K   12252.96062254  .00000620  00000-0  14845-3 0 05561
2 31126 097.8756 259.1699 0092895 209.0992 150.5011 14.54247404286444
CAPE1
1 31130U 07012P   12251.96414388  .00000938  00000-0  22304-3 0 05611
2 31130 097.8842 254.5713 0100168 225.9932 133.2998 14.53055244285792
COMPASS
1 32787U 08021E   12253.20917407  .00003448  00000-0  41640-3 0  4049
2 32787 097.7919 312.6640 0015960 141.7251 218.5107 14.84310326236271
AAUSAT2
1 32788U 08021F   12252.14896534  .00003685  00000-0  44104-3 0 03971
2 32788 097.7937 312.0577 0015256 143.2476 216.9808 14.84650420236147
DO-64
1 32789U 08021G   12252.17508551  .00005694  00000-0  65051-3 0 04139
2 32789 097.8053 314.4336 0015343 141.4796 218.7477 14.86348999236205
CO-66
1 32791U 08021J   12252.15420178  .00002810  00000-0  34579-3 0 03933
2 32791 097.7902 311.3047 0016608 145.6797 214.5489 14.83666698236042
RS-30
1 32953U 08025A   12253.39994680  .00000010  00000-0  00000 0 0  1271
2 32953 082.4973 242.7645 0019939 121.2721 239.0315 12.43027440195021
PHARMSAT
1 35002U 09028B   12226.86484473  .07728342  73476-5  57159-3 0   789
2 35002 040.4341 050.6671 0012079 300.9773 059.0492 16.39309245183554
METEOR-M
1 35865U 09049A   12253.24122791  .00000016  00000-0  27030-4 0  7621
2 35865 098.6459 305.9539 0002509 149.6211 210.5112 14.21868884154545
RS-38
1 35869U 09049E   12253.53120399  .00000078  00000-0  54603-4 0  7522
2 35869 098.6410 306.2192 0004563 157.9754 202.1621 14.22086176154607
JUGNU
1 37839U 11058B   12253.26230616  .00000620  00000-0  19019-3 0  2235
2 37839 019.9598 208.8995 0019382 069.5534 290.6953 14.12078899 47148
SRMSAT
1 37841U 11058D   12253.28976920  .00000264  00000-0  00000 0 0  2246
2 37841 019.9693 215.2568 0011436 032.6275 327.4850 14.10158961 47074
RAX-2
1 37853U 11061D   12252.93187707  .00010106  00000-0  79006-3 0 02917
2 37853 101.7041 331.2613 0244963 112.1407 250.5963 14.80693775046791
AUBIESAT
1 37854U 11061E   12252.93112172  .00010697  00000-0  81933-3 0 02885
2 37854 101.7100 331.6248 0246459 111.3745 251.3906 14.81145951046788
HRBE
1 37855U 11061F   12252.88620683  .00010268  00000-0  79303-3 0  2760
2 37855 101.7069 331.4841 0245935 111.5928 251.1644 14.80960681 46773
RS-39
1 38051U 11062C   12252.22436520  .00013620  00000-0  53981-3 0 06823
2 38051 051.6344 123.7797 0012193 339.6812 120.6919 15.25614967034647
E-STAR
1 38079U 12006C   12252.09384964  .00051276  00000-0  12575-2 0 04898
2 38079 069.4833 125.5091 0719411 143.0269 222.2707 14.20028568029338
GOLIAT
1 38085U 12006J   12253.06169139  .00049059  00000-0  11911-2 0  4617
2 38085 069.4813 123.8478 0725133 142.1967 223.2449 14.19022318 29458
HORYU-2
1 38340U 12025D   12253.36361911  .00001882  00000-0  32078-3 0  1366
2 38340 098.1803 193.3078 0014041 065.0160 295.2476 14.70155981 16843
RS-40
1 38736U 12041D   12252.07391090  .00000010  00000-0  00000-0 0 00471
2 38736 082.4822 331.0246 0018049 220.3799 139.5943 12.42646228005206
/EX




More information about the Keps mailing list